Regional Weather Roundup
Issued by NWS

Home | Current Version | Previous Version | Text Only | Print | Product List | Glossary Off
Versions: 1 2 3 4 5 6 7 8 9 10 11 12 13 14 15 16 17 18 19 20 21 22 23 24 25 26 27

000
ASUS45 KPSR 191610
RWRAZ

ARIZONA HOURLY REGIONAL WEATHER ROUNDUP
NATIONAL WEATHER SERVICE PHOENIX AZ
900 AM MST THU OCT 19 2017

NOTE: FAIR INDICATES FEW OR NO CLOUDS BELOW 12,000 FEET WITH NO
SIGNIFICANT WEATHER AND/OR OBSTRUCTIONS TO VISIBILITY.

AZZ001>003-036-191700-
NORTHWEST ARIZONA

CITY           SKY/WX    TMP DP  RH WIND       PRES   REMARKS
BULLHEAD CITY  SUNNY     70  25  18 CALM      29.84R
KINGMAN        SUNNY     70  32  24 CALM      29.96R
$$

AZZ004>008-015-016-018-191700-
NORTH CENTRAL ARIZONA

CITY           SKY/WX    TMP DP  RH WIND       PRES   REMARKS
GRAND CANYON   PTSUNNY   49  46  90 CALM      30.17S
WILLIAMS       PTSUNNY   64  32  29 SE6       30.16S
PRESCOTT       MOSUNNY   67  33  28 CALM      30.07S
FLAGSTAFF      MOSUNNY   61  34  36 SW5       30.19R
PAYSON           N/A     68  36  30 VRB6      30.11R
PAGE           PTSUNNY   61  34  36 S3        30.06R
$$

AZZ009>014-017-191700-
NORTHEAST ARIZONA

CITY           SKY/WX    TMP DP  RH WIND       PRES   REMARKS
WINSLOW        PTSUNNY   63  36  36 E9        30.10R
SAINT JOHNS    PTSUNNY   69  32  25 S6        30.12F
WINDOW ROCK    CLOUDY    56  29  35 SW6       30.21R
SHOW LOW       PTSUNNY   68  30  24 S16       30.18S
$$

AZZ540-542>544-546-548-191700-
GREATER PHOENIX AREA

CITY           SKY/WX    TMP DP  RH WIND       PRES   REMARKS
PHOENIX        PTSUNNY   78  42  27 E9        29.84R
BUCKEYE        MOSUNNY   73  73 100 SE3       29.85R
GLENDALE       PTSUNNY   77  43  29 CALM      29.87R
LUKE AFB       MOSUNNY   76  41  28 CALM      29.84R
DEER VALLEY      N/A     80  38  22 MISG      29.86R
SCOTTSDALE     CLOUDY    77  43  29 SW3       29.88R
MESA-GATEWAY   PTSUNNY   73  43  33 SE8       29.88R
CHANDLER       PTSUNNY   75  41  29 CALM      29.86R
$$

AZZ539-553-191700-
SOUTHWEST MARICOPA COUNTY AND PINAL COUNTY

CITY           SKY/WX    TMP DP  RH WIND       PRES   REMARKS
CASA GRANDE    NOT AVBL
GILA BEND      MOSUNNY   84  37  18 SW3       29.83R
$$

AZZ503-504-507>509-191700-
SOUTHEAST ARIZONA

CITY           SKY/WX    TMP DP  RH WIND       PRES   REMARKS
TUCSON         MOSUNNY   79  37  22 SE9       29.97R
DAVIS-MONTHAN  PTSUNNY   77  36  22 VRB2      29.95R
RYAN FIELD     SUNNY     73  39  29 CALM      29.96R
NOGALES        SUNNY     72  38  29 CALM      30.04R
SIERRA VISTA   SUNNY     74  35  23 CALM      30.09S
DOUGLAS        SUNNY     72  39  30 S6        30.07S
SAFFORD        SUNNY     74  45  35 SE9       30.00R
$$

AZZ532-191700-
SOUTHWEST ARIZONA

CITY           SKY/WX    TMP DP  RH WIND       PRES   REMARKS
YUMA           MOSUNNY   79  40  24 SW3       29.81R
$$

CAZ041-043-047-048-061-525>527-560>570-191700-
SOUTHERN CALIFORNIA

CITY           SKY/WX    TMP DP  RH WIND       PRES   REMARKS
DOWNTOWN L.A.  SUNNY     70  60  70 CALM      29.92R
L.A. AIRPORT   MOSUNNY   69  62  78 VRB3      29.92R
SAN DIEGO      PTSUNNY   67  60  78 VRB6      29.94R HAZE
BURBANK        MOSUNNY   65  57  75 CALM      29.94R
ONTARIO        PTSUNNY   65  59  81 SW9       29.94R HAZE
RIVERSIDE      SUNNY     64  58  80 W5        29.94R HAZE
PALM SPRINGS   SUNNY     79  49  34 CALM      29.82R
EL CENTRO NAS  MOSUNNY   85  22  10 W6        29.80R
IMPERIAL       SUNNY     82  37  20 CALM      29.79R
BLYTHE         SUNNY     75  38  26 CALM      29.82R
NEEDLES        SUNNY     75  21  13 SE3       29.85R
$$

NVZ020-UTZ003-191700-
SOUTHERN NEVADA-UTAH

CITY           SKY/WX    TMP DP  RH WIND       PRES   REMARKS
LAS VEGAS      PTSUNNY   75  22  13 N3        29.89S
SALT LAKE CITY MOSUNNY   56  28  34 SE9       30.00F
$$

NMZ009-TXZ055-191700-
NEW MEXICO-WEST TEXAS

CITY           SKY/WX    TMP DP  RH WIND       PRES   REMARKS
ALBUQUERQUE    PTSUNNY   59  31  34 NW3       30.17S
EL PASO        MOSUNNY   71  54  54 CALM      30.10R
$$


........................KEY........................
SKY/WX - SKY CONDITION/WEATHER
TMP    - TEMPERATURE IN FAHRENHEIT
DP     - DEW POINT IN FAHRENHEIT
RH     - RELATIVE HUMIDITY IN PERCENT
WIND   - DIRECTION AND SPEED IN MILES PER HOUR (MPH)
VRB    - VARIABLE WIND DIRECTION
PRES   - MEAN SEA LEVEL PRESSURE IN INCHES OF MERCURY
         F - FALLING PRESSURE   R - RISING PRESSURE
         S - STEADY PRESSURE
VSB    - VISIBILITY IN MILES
HX     - HEAT INDEX IN FAHRENHEIT
WCI    - WIND CHILL INDEX IN FAHRENHEIT
TC     - TEMPERATURE IN CELSIUS WHICH IS ALSO KNOWN AS
         TEMPERATURE IN CENTIGRADE
AFB    - AIR FORCE BASE
         LUKE AFB IS LUKE AIR FORCE BASE
         DAVIS-MONTHAN IS DAVIS-MONTHAN AIR FORCE BASE
NAS    - NAVAL AIR STATION
         EL CENTRO NAS IS EL CENTRO NAVAL AIR STATION
N/A    - NOT AVAILABLE





USA.gov is the U.S. government's official web portal to all federal, state and local government web resources and services.